Location: Newark
(52.8300°N, 8.0000°E)
Time: 17:44:31
(UTC+00:00)

STARLINK-1098 - Pass Details

Date: 29 January 2020
Orbit: 549 x 550 km, 53.0° (Epoch: 21 February)

Event Time Altitude Azimuth Distance (km) Brightness Sun altitude
Rises 18:13:33 0° 286° (WNW) 2,721 8.4 -19.1°
Reaches altitude 10° 18:15:55 10° 278° (W) 1,824 7.4 -19.4°
Maximum altitude 18:19:42 35° 212° (SSW) 896 5.0 -20.0°
Enters shadow 18:21:52 21° 160° (SSE) 1,275 5.3 -20.3°
